Location: Zapote
(9.9191°N, 84.0597°W)
Time: 16:29:20
(UTC-06:00)

Transit 2A - Pass Details

Date: 08 March 2021
Orbit: 602 x 957 km, 66.7° (Epoch: 15 April)

Event Time Altitude Azimuth Distance (km) Brightness Sun altitude
Rises 15:39:15 0° 202° (SSW) 3,544 9.9 30.4°
Reaches altitude 10° 15:41:51 10° 204° (SSW) 2,563 9.3 29.7°
Maximum altitude 15:47:48 79° 290° (WNW) 858 7.0 28.3°
Drops below altitude 10° 15:53:12 10° 17° (NNE) 2,331 8.3 27.0°
Sets 15:55:29 0° 18° (NNE) 3,202 9.0 26.4°
